Weather History for Marshfield, WI

Change the Weather History Date:

Friday, March 21, 2014

  Actual Average Record
Temperature  
Mean Temperature 32 °F -  
Max Temperature 42 °F 40 °F 72 °F (2012)
Min Temperature 23 °F 22 °F -12 °F (1965)
Degree Days  
Heating Degree Days 33    
Moisture  
Dew Point 26 °F    
Average Humidity 73    
Maximum Humidity 89    
Minimum Humidity 53    
Precipitation  
Precipitation 0.00 in - - ()
Sea Level Pressure  
Sea Level Pressure 29.85 in    
Wind  
Wind Speed 7 mph (SW)    
Max Wind Speed 21 mph    
Max Gust Speed 29 mph    
Visibility 9 miles    
Events Rain    
Averages and records for this station are not official NWS values.
T = Trace of Precipitation, MM = Missing Value Source: NWS Daily Summary

Daily Weather History Graph

Daily Weather History Graph

Search for Another Location

Airport:

Trip Planner

Search our weather history database for the weather conditions in past years. The results will help you decide how hot, cold, wet, or windy it might be!

Date:

Astronomy

Mar. 21, 2014 Rise Set
Actual Time 7:01 AM CDT 7:14 PM CDT
Civil Twilight 6:32 AM CDT 7:43 PM CDT
Nautical Twilight 5:58 AM CDT 8:17 PM CDT
Astronomical Twilight 5:23 AM CDT 8:53 PM CDT
Moon No Moon Rise 9:42 AM CDT (3/21)
Length of Visible Light 13h 10m
Length of Day
12h 12m
Waning Gibbous, 75% of the Moon is Illuminated
Mar 21
Waning Gibbous
Mar 23
Last Quarter
Mar 30
New
Apr 7
First Quarter
Apr 15
Full

Hourly Weather History & Observations

Time (CDT) Temp. Windchill Dew Point Humidity Pressure Visibility Wind Dir Wind Speed Gust Speed Precip Events Conditions
12:54 AM 26.1 °F - 21.0 °F 81% 30.00 in 6.0 mi Calm Calm - N/A   Haze
1:54 AM 26.1 °F - 21.0 °F 81% 29.98 in 8.0 mi Calm Calm - N/A   Clear
2:54 AM 24.1 °F 19.7 °F 19.9 °F 84% 29.98 in 8.0 mi ESE 3.5 mph - N/A   Clear
3:54 AM 25.0 °F 20.7 °F 21.0 °F 85% 29.97 in 8.0 mi East 3.5 mph - N/A   Clear
4:54 AM 23.0 °F 17.0 °F 19.0 °F 85% 29.94 in 9.0 mi East 4.6 mph - N/A   Clear
5:54 AM 24.1 °F 18.2 °F 19.0 °F 81% 29.94 in 10.0 mi SE 4.6 mph - N/A   Clear
6:54 AM 25.0 °F 19.3 °F 19.0 °F 78% 29.95 in 10.0 mi SSE 4.6 mph - N/A   Clear
7:54 AM 28.9 °F 21.1 °F 19.9 °F 69% 29.94 in 10.0 mi SSE 8.1 mph - N/A   Partly Cloudy
8:54 AM 30.9 °F 23.5 °F 21.9 °F 69% 29.91 in 10.0 mi SE 8.1 mph - N/A   Mostly Cloudy
9:54 AM 34.0 °F 24.2 °F 23.0 °F 64% 29.87 in 10.0 mi SSE 15.0 mph - N/A   Clear
10:54 AM 37.0 °F 28.1 °F 24.1 °F 59% 29.84 in 10.0 mi SSE 15.0 mph - N/A   Partly Cloudy
11:54 AM 39.0 °F 29.6 °F 25.0 °F 57% 29.81 in 10.0 mi South 18.4 mph 21.9 mph N/A   Mostly Cloudy
12:54 PM 39.0 °F 31.8 °F 25.0 °F 57% 29.81 in 10.0 mi South 11.5 mph - N/A   Overcast
1:54 PM 39.9 °F 34.5 °F 24.1 °F 53% 29.78 in 10.0 mi SSE 8.1 mph - N/A   Overcast
2:54 PM 39.9 °F 33.9 °F 25.0 °F 55% 29.75 in 10.0 mi SSE 9.2 mph - N/A   Overcast
3:54 PM 39.9 °F 36.7 °F 25.0 °F 55% 29.74 in 10.0 mi SSE 4.6 mph - N/A   Overcast
4:54 PM 39.9 °F 37.8 °F 26.1 °F 58% 29.75 in 10.0 mi ENE 3.5 mph - N/A   Overcast
5:54 PM 41.0 °F - 26.1 °F 55% 29.75 in 10.0 mi Calm Calm - N/A   Overcast
6:54 PM 39.0 °F 35.7 °F 26.1 °F 60% 29.77 in 6.0 mi West 4.6 mph - 0.00 in Rain Light Rain
7:03 PM 37.9 °F 31.5 °F 28.9 °F 70% 29.73 in 3.0 mi WNW 9.2 mph - 0.00 in Rain Light Rain
7:50 PM 35.6 °F 27.1 °F 32.0 °F 87% 29.75 in 4.0 mi WNW 12.7 mph - 0.00 in Rain Light Rain
7:51 PM 36.0 °F 27.5 °F 32.0 °F 86% 29.79 in 4.0 mi WNW 12.7 mph - 0.00 in Rain Light Rain
8:14 PM 35.1 °F 25.2 °F 32.0 °F 89% 29.76 in 5.0 mi WNW 16.1 mph 28.8 mph 0.00 in   Overcast
8:30 PM 36.0 °F 26.0 °F 30.9 °F 82% 29.77 in 10.0 mi WNW 17.3 mph 23.0 mph 0.00 in   Overcast
8:42 PM 36.0 °F 25.6 °F 30.9 °F 82% 29.77 in 10.0 mi WNW 18.4 mph 25.3 mph 0.00 in   Overcast
8:54 PM 35.1 °F 23.8 °F 30.9 °F 85% 29.82 in 10.0 mi WNW 20.7 mph 26.5 mph 0.00 in   Overcast
9:54 PM 35.1 °F 23.8 °F 28.9 °F 78% 29.86 in 10.0 mi NW 20.7 mph - N/A   Overcast
10:43 PM 35.1 °F 23.8 °F 28.9 °F 78% 29.85 in 10.0 mi NW 20.7 mph - N/A   Overcast
10:54 PM 35.1 °F 24.1 °F 28.9 °F 78% 29.90 in 10.0 mi NW 19.6 mph - N/A   Overcast
11:44 PM 35.1 °F 25.2 °F 28.0 °F 76% 29.89 in 10.0 mi NNW 16.1 mph - N/A   Overcast
11:54 PM 35.1 °F 24.8 °F 27.0 °F 72% 29.94 in 10.0 mi NNW 17.3 mph - N/A   Overcast